^^
TXWeather Station Historical Data
Daily Summary for January 07, 2022 Units:  English    Metric   Both
Daily Weekly Monthly Yearly Custom
  High: Low: Average:
Temperature: 51.0 °F 37.0 °F 44.5 °F
Dew Point: 43.0 °F 30.0 °F 36.5 °F
Humidity: 83% 64% 73%
Wind Speed: 13mph 2mph 5.8mph
Wind Gust: 13mph - -
Wind- - ESE
Pressure: 30.3 in 30.2 in -
Precipitation: 0.000 in    
Historical Graphs
 
 
Tabular Data for January 07, 2022
Time Temperature Dew Point Pressure Wind Wind Speed Wind Gust Humidity Rainfall Rate (Hourly) solar
00:04 42.0 °F 31.0 °F 30.2 in North 9 mph 9 mph 64% 0.000 in 0.00 W/m2
00:09 42.0 °F 31.0 °F 30.2 in North 8 mph 8 mph 65% 0.000 in 0.00 W/m2
00:14 42.0 °F 31.0 °F 30.2 in NNW 9 mph 9 mph 65% 0.000 in 0.00 W/m2
00:19 42.0 °F 31.0 °F 30.2 in North 8 mph 9 mph 65% 0.000 in 0.00 W/m2
00:24 42.0 °F 31.0 °F 30.2 in North 8 mph 8 mph 65% 0.000 in 0.00 W/m2
00:29 42.0 °F 31.0 °F 30.2 in North 5 mph 5 mph 65% 0.000 in 0.00 W/m2
00:34 42.0 °F 31.0 °F 30.2 in North 6 mph 8 mph 65% 0.000 in 0.00 W/m2
00:39 42.0 °F 31.0 °F 30.2 in North 6 mph 6 mph 66% 0.000 in 0.00 W/m2
00:44 41.0 °F 31.0 °F 30.2 in North 8 mph 9 mph 66% 0.000 in 0.00 W/m2
00:49 41.0 °F 31.0 °F 30.2 in North 7 mph 9 mph 66% 0.000 in 0.00 W/m2
00:54 41.0 °F 31.0 °F 30.2 in North 7 mph 8 mph 66% 0.000 in 0.00 W/m2
00:59 41.0 °F 31.0 °F 30.2 in NNW 5 mph 5 mph 67% 0.000 in 0.00 W/m2
01:04 41.0 °F 31.0 °F 30.2 in North 4 mph 7 mph 67% 0.000 in 0.00 W/m2
01:09 41.0 °F 31.0 °F 30.2 in North 6 mph 6 mph 67% 0.000 in 0.00 W/m2
01:14 41.0 °F 31.0 °F 30.2 in North 5 mph 5 mph 67% 0.000 in 0.00 W/m2
01:19 41.0 °F 31.0 °F 30.2 in North 6 mph 7 mph 67% 0.000 in 0.00 W/m2
01:24 41.0 °F 31.0 °F 30.2 in NNW 4 mph 4 mph 68% 0.000 in 0.00 W/m2
01:29 41.0 °F 31.0 °F 30.2 in North 5 mph 5 mph 68% 0.000 in 0.00 W/m2
01:34 40.0 °F 31.0 °F 30.2 in North 4 mph 4 mph 68% 0.000 in 0.00 W/m2
01:39 40.0 °F 31.0 °F 30.2 in NNW 5 mph 5 mph 68% 0.000 in 0.00 W/m2
01:44 40.0 °F 31.0 °F 30.2 in NNW 4 mph 4 mph 69% 0.000 in 0.00 W/m2
01:49 40.0 °F 31.0 °F 30.2 in North 5 mph 5 mph 69% 0.000 in 0.00 W/m2
01:54 40.0 °F 31.0 °F 30.2 in North 4 mph 5 mph 69% 0.000 in 0.00 W/m2
01:59 40.0 °F 30.0 °F 30.2 in North 5 mph 5 mph 69% 0.000 in 0.00 W/m2
02:04 40.0 °F 31.0 °F 30.2 in North 5 mph 5 mph 70% 0.000 in 0.00 W/m2
02:09 40.0 °F 31.0 °F 30.2 in North 4 mph 4 mph 70% 0.000 in 0.00 W/m2
02:14 40.0 °F 31.0 °F 30.2 in North 4 mph 4 mph 70% 0.000 in 0.00 W/m2
02:19 40.0 °F 31.0 °F 30.2 in North 5 mph 5 mph 70% 0.000 in 0.00 W/m2
02:24 39.0 °F 30.0 °F 30.2 in North 4 mph 5 mph 70% 0.000 in 0.00 W/m2
02:29 39.0 °F 31.0 °F 30.2 in North 4 mph 5 mph 71% 0.000 in 0.00 W/m2
02:34 39.0 °F 31.0 °F 30.2 in North 3 mph 4 mph 71% 0.000 in 0.00 W/m2
02:39 39.0 °F 30.0 °F 30.2 in NNW 3 mph 3 mph 71% 0.000 in 0.00 W/m2
02:44 39.0 °F 30.0 °F 30.2 in NNW 3 mph 3 mph 71% 0.000 in 0.00 W/m2
02:49 39.0 °F 30.0 °F 30.2 in NNW 3 mph 4 mph 71% 0.000 in 0.00 W/m2
02:54 39.0 °F 30.0 °F 30.2 in NNW 3 mph 3 mph 71% 0.000 in 0.00 W/m2
02:59 39.0 °F 30.0 °F 30.2 in North 3 mph 3 mph 71% 0.000 in 0.00 W/m2
03:04 39.0 °F 30.0 °F 30.2 in North 5 mph 5 mph 71% 0.000 in 0.00 W/m2
03:09 39.0 °F 30.0 °F 30.2 in NNW 4 mph 4 mph 72% 0.000 in 0.00 W/m2
03:14 39.0 °F 30.0 °F 30.2 in North 3 mph 5 mph 72% 0.000 in 0.00 W/m2
03:19 39.0 °F 30.0 °F 30.2 in NNE 5 mph 5 mph 72% 0.000 in 0.00 W/m2
03:24 39.0 °F 30.0 °F 30.2 in North 5 mph 5 mph 72% 0.000 in 0.00 W/m2
03:29 38.0 °F 30.0 °F 30.2 in North 4 mph 4 mph 73% 0.000 in 0.00 W/m2
03:34 38.0 °F 30.0 °F 30.2 in North 3 mph 4 mph 73% 0.000 in 0.00 W/m2
03:39 38.0 °F 30.0 °F 30.2 in North 3 mph 3 mph 73% 0.000 in 0.00 W/m2
03:44 38.0 °F 30.0 °F 30.2 in North 3 mph 3 mph 73% 0.000 in 0.00 W/m2
03:49 38.0 °F 31.0 °F 30.2 in North 3 mph 3 mph 74% 0.000 in 0.00 W/m2
03:54 38.0 °F 30.0 °F 30.2 in North 3 mph 3 mph 74% 0.000 in 0.00 W/m2
03:59 38.0 °F 30.0 °F 30.2 in NNE 5 mph 5 mph 74% 0.000 in 0.00 W/m2
04:04 38.0 °F 31.0 °F 30.2 in NNE 5 mph 7 mph 75% 0.000 in 0.00 W/m2
04:09 38.0 °F 31.0 °F 30.2 in NNE 5 mph 6 mph 76% 0.000 in 0.00 W/m2
04:14 38.0 °F 31.0 °F 30.2 in North 5 mph 6 mph 76% 0.000 in 0.00 W/m2
04:19 38.0 °F 31.0 °F 30.2 in NNE 4 mph 7 mph 76% 0.000 in 0.00 W/m2
04:24 38.0 °F 32.0 °F 30.2 in NNE 8 mph 8 mph 77% 0.000 in 0.00 W/m2
04:29 38.0 °F 32.0 °F 30.2 in NNE 8 mph 8 mph 77% 0.000 in 0.00 W/m2
04:34 38.0 °F 32.0 °F 30.2 in NNE 7 mph 8 mph 77% 0.000 in 0.00 W/m2
04:39 38.0 °F 32.0 °F 30.2 in NNE 7 mph 7 mph 77% 0.000 in 0.00 W/m2
04:44 38.0 °F 32.0 °F 30.2 in NNE 5 mph 7 mph 77% 0.000 in 0.00 W/m2
04:49 38.0 °F 32.0 °F 30.2 in NNE 5 mph 7 mph 77% 0.000 in 0.00 W/m2
04:54 38.0 °F 32.0 °F 30.2 in NNE 5 mph 8 mph 77% 0.000 in 0.00 W/m2
04:59 38.0 °F 32.0 °F 30.2 in NNE 6 mph 8 mph 77% 0.000 in 0.00 W/m2
05:04 38.0 °F 32.0 °F 30.2 in NNE 5 mph 8 mph 77% 0.000 in 0.00 W/m2
05:09 38.0 °F 32.0 °F 30.2 in NNE 3 mph 8 mph 78% 0.000 in 0.00 W/m2
05:14 38.0 °F 32.0 °F 30.2 in NNE 4 mph 4 mph 78% 0.000 in 0.00 W/m2
05:19 38.0 °F 32.0 °F 30.2 in NNE 6 mph 6 mph 78% 0.000 in 0.00 W/m2
05:24 38.0 °F 31.0 °F 30.2 in NNE 8 mph 8 mph 78% 0.000 in 0.00 W/m2
05:29 38.0 °F 31.0 °F 30.2 in NNE 4 mph 8 mph 78% 0.000 in 0.00 W/m2
05:34 37.0 °F 31.0 °F 30.2 in NNE 5 mph 5 mph 78% 0.000 in 0.00 W/m2
05:39 37.0 °F 31.0 °F 30.2 in NE 4 mph 5 mph 79% 0.000 in 0.00 W/m2
05:44 37.0 °F 31.0 °F 30.2 in NNE 4 mph 4 mph 79% 0.000 in 0.00 W/m2
05:49 37.0 °F 31.0 °F 30.2 in NE 3 mph 3 mph 79% 0.000 in 0.00 W/m2
05:54 37.0 °F 31.0 °F 30.2 in NNE 5 mph 5 mph 79% 0.000 in 0.00 W/m2
05:59 37.0 °F 32.0 °F 30.2 in NNE 4 mph 4 mph 80% 0.000 in 0.00 W/m2
06:04 37.0 °F 32.0 °F 30.2 in NNE 5 mph 5 mph 80% 0.000 in 0.00 W/m2
06:09 37.0 °F 32.0 °F 30.2 in NNE 4 mph 5 mph 80% 0.000 in 0.00 W/m2
06:14 37.0 °F 32.0 °F 30.2 in NNE 6 mph 6 mph 80% 0.000 in 0.00 W/m2
06:19 37.0 °F 32.0 °F 30.2 in NNE 4 mph 6 mph 80% 0.000 in 0.00 W/m2
06:24 37.0 °F 32.0 °F 30.3 in NE 4 mph 5 mph 81% 0.000 in 0.00 W/m2
06:29 37.0 °F 32.0 °F 30.3 in NE 4 mph 5 mph 81% 0.000 in 0.00 W/m2
06:34 37.0 °F 32.0 °F 30.3 in NE 2 mph 4 mph 81% 0.000 in 0.00 W/m2
06:39 37.0 °F 32.0 °F 30.3 in NNE 3 mph 3 mph 81% 0.000 in 0.00 W/m2
06:44 37.0 °F 32.0 °F 30.3 in NE 4 mph 4 mph 81% 0.000 in 0.00 W/m2
06:49 37.0 °F 32.0 °F 30.3 in NE 4 mph 4 mph 81% 0.000 in 0.00 W/m2
06:54 37.0 °F 32.0 °F 30.3 in NE 4 mph 4 mph 81% 0.000 in 0.00 W/m2
06:59 37.0 °F 32.0 °F 30.3 in NNE 4 mph 4 mph 82% 0.000 in 0.00 W/m2
07:04 37.0 °F 32.0 °F 30.3 in NE 4 mph 5 mph 82% 0.000 in 0.00 W/m2
07:09 37.0 °F 32.0 °F 30.3 in NE 4 mph 5 mph 82% 0.000 in 0.00 W/m2
07:14 37.0 °F 32.0 °F 30.3 in NE 3 mph 3 mph 82% 0.000 in 0.00 W/m2
07:19 37.0 °F 32.0 °F 30.3 in NE 3 mph 3 mph 82% 0.000 in 0.00 W/m2
07:24 37.0 °F 32.0 °F 30.3 in ENE 3 mph 4 mph 82% 0.000 in 5.00 W/m2
07:29 37.0 °F 32.0 °F 30.3 in NE 4 mph 4 mph 82% 0.000 in 9.00 W/m2
07:34 37.0 °F 32.0 °F 30.3 in NE 4 mph 4 mph 82% 0.000 in 12.00 W/m2
07:39 37.0 °F 32.0 °F 30.3 in NE 5 mph 5 mph 82% 0.000 in 14.00 W/m2
07:44 37.0 °F 32.0 °F 30.3 in ENE 4 mph 4 mph 83% 0.000 in 18.00 W/m2
07:49 37.0 °F 32.0 °F 30.3 in ENE 3 mph 4 mph 83% 0.000 in 30.00 W/m2
07:54 37.0 °F 32.0 °F 30.3 in NE 3 mph 3 mph 83% 0.000 in 42.00 W/m2
07:59 37.0 °F 33.0 °F 30.3 in East 2 mph 3 mph 83% 0.000 in 53.00 W/m2
08:04 37.0 °F 33.0 °F 30.3 in ENE 4 mph 4 mph 83% 0.000 in 63.00 W/m2
08:09 38.0 °F 33.0 °F 30.3 in NE 6 mph 6 mph 83% 0.000 in 60.00 W/m2
08:14 38.0 °F 33.0 °F 30.3 in NE 5 mph 5 mph 83% 0.000 in 72.00 W/m2
08:19 38.0 °F 33.0 °F 30.3 in ENE 4 mph 5 mph 83% 0.000 in 65.00 W/m2
08:24 39.0 °F 34.0 °F 30.3 in NE 6 mph 6 mph 83% 0.000 in 69.00 W/m2
08:29 39.0 °F 34.0 °F 30.3 in East 6 mph 8 mph 83% 0.000 in 102.00 W/m2
08:34 39.0 °F 34.0 °F 30.3 in East 7 mph 8 mph 82% 0.000 in 102.00 W/m2
08:39 39.0 °F 34.0 °F 30.3 in East 4 mph 7 mph 82% 0.000 in 120.00 W/m2
08:44 39.0 °F 34.0 °F 30.3 in ENE 6 mph 8 mph 82% 0.000 in 105.00 W/m2
08:49 40.0 °F 34.0 °F 30.3 in East 8 mph 8 mph 81% 0.000 in 188.00 W/m2
08:54 40.0 °F 34.0 °F 30.3 in East 6 mph 8 mph 81% 0.000 in 207.00 W/m2
08:59 40.0 °F 35.0 °F 30.3 in ENE 7 mph 8 mph 80% 0.000 in 230.00 W/m2
09:04 41.0 °F 35.0 °F 30.3 in ENE 9 mph 10 mph 80% 0.000 in 113.00 W/m2
09:09 41.0 °F 35.0 °F 30.3 in East 9 mph 9 mph 79% 0.000 in 148.00 W/m2
09:14 41.0 °F 34.0 °F 30.3 in ENE 9 mph 10 mph 78% 0.000 in 408.00 W/m2
09:19 41.0 °F 34.0 °F 30.3 in East 9 mph 10 mph 77% 0.000 in 408.00 W/m2
09:24 42.0 °F 35.0 °F 30.3 in ENE 9 mph 10 mph 77% 0.000 in 264.00 W/m2
09:29 42.0 °F 35.0 °F 30.3 in ESE 8 mph 10 mph 76% 0.000 in 492.00 W/m2
09:34 42.0 °F 35.0 °F 30.3 in East 9 mph 9 mph 76% 0.000 in 475.00 W/m2
09:39 42.0 °F 34.0 °F 30.3 in ENE 13 mph 13 mph 73% 0.000 in 167.00 W/m2
09:44 42.0 °F 34.0 °F 30.3 in NE 9 mph 10 mph 72% 0.000 in 165.00 W/m2
09:49 42.0 °F 34.0 °F 30.3 in ENE 10 mph 10 mph 72% 0.000 in 162.00 W/m2
09:54 42.0 °F 34.0 °F 30.3 in East 7 mph 8 mph 73% 0.000 in 160.00 W/m2
09:59 42.0 °F 34.0 °F 30.3 in NE 9 mph 10 mph 73% 0.000 in 158.00 W/m2
10:04 42.0 °F 34.0 °F 30.3 in NE 8 mph 9 mph 73% 0.000 in 155.00 W/m2
10:09 42.0 °F 34.0 °F 30.3 in NE 7 mph 8 mph 73% 0.000 in 151.00 W/m2
10:14 42.0 °F 34.0 °F 30.3 in NE 7 mph 7 mph 73% 0.000 in 163.00 W/m2
10:19 42.0 °F 34.0 °F 30.3 in ENE 4 mph 7 mph 73% 0.000 in 171.00 W/m2
10:24 42.0 °F 34.0 °F 30.3 in East 6 mph 7 mph 73% 0.000 in 178.00 W/m2
10:29 43.0 °F 34.0 °F 30.3 in ESE 8 mph 8 mph 73% 0.000 in 176.00 W/m2
10:34 43.0 °F 35.0 °F 30.3 in NE 5 mph 8 mph 72% 0.000 in 172.00 W/m2
10:39 43.0 °F 35.0 °F 30.3 in ESE 3 mph 4 mph 72% 0.000 in 174.00 W/m2
10:44 43.0 °F 35.0 °F 30.3 in SE 7 mph 7 mph 72% 0.000 in 167.00 W/m2
10:49 44.0 °F 35.0 °F 30.3 in SE 8 mph 8 mph 72% 0.000 in 183.00 W/m2
10:54 44.0 °F 35.0 °F 30.3 in SE 7 mph 7 mph 72% 0.000 in 206.00 W/m2
10:59 44.0 °F 35.0 °F 30.3 in SE 7 mph 7 mph 72% 0.000 in 204.00 W/m2
11:04 44.0 °F 36.0 °F 30.3 in SE 8 mph 9 mph 71% 0.000 in 200.00 W/m2
11:09 44.0 °F 36.0 °F 30.3 in SE 7 mph 8 mph 71% 0.000 in 200.00 W/m2
11:14 45.0 °F 36.0 °F 30.3 in SE 5 mph 8 mph 71% 0.000 in 218.00 W/m2
11:19 45.0 °F 36.0 °F 30.3 in SE 8 mph 8 mph 70% 0.000 in 213.00 W/m2
11:24 45.0 °F 36.0 °F 30.3 in SE 8 mph 8 mph 70% 0.000 in 199.00 W/m2
11:29 45.0 °F 36.0 °F 30.3 in East 4 mph 4 mph 70% 0.000 in 190.00 W/m2
11:34 45.0 °F 36.0 °F 30.3 in SE 7 mph 7 mph 70% 0.000 in 178.00 W/m2
11:39 45.0 °F 36.0 °F 30.3 in East 5 mph 5 mph 70% 0.000 in 185.00 W/m2
11:44 45.0 °F 36.0 °F 30.3 in East 5 mph 5 mph 70% 0.000 in 162.00 W/m2
11:49 45.0 °F 36.0 °F 30.3 in NE 4 mph 6 mph 69% 0.000 in 174.00 W/m2
11:54 45.0 °F 36.0 °F 30.3 in ENE 6 mph 6 mph 70% 0.000 in 186.00 W/m2
11:59 45.0 °F 36.0 °F 30.3 in NE 7 mph 7 mph 70% 0.000 in 214.00 W/m2
12:04 45.0 °F 36.0 °F 30.3 in East 4 mph 7 mph 70% 0.000 in 223.00 W/m2
12:09 45.0 °F 37.0 °F 30.3 in ENE 5 mph 5 mph 71% 0.000 in 220.00 W/m2
12:14 46.0 °F 36.0 °F 30.3 in NE 5 mph 6 mph 70% 0.000 in 188.00 W/m2
12:19 46.0 °F 37.0 °F 30.3 in East 6 mph 7 mph 70% 0.000 in 234.00 W/m2
12:24 46.0 °F 37.0 °F 30.3 in NE 5 mph 5 mph 70% 0.000 in 227.00 W/m2
12:29 46.0 °F 37.0 °F 30.3 in ESE 7 mph 8 mph 70% 0.000 in 200.00 W/m2
12:34 46.0 °F 37.0 °F 30.3 in ESE 4 mph 6 mph 70% 0.000 in 190.00 W/m2
12:39 46.0 °F 37.0 °F 30.3 in ENE 7 mph 7 mph 69% 0.000 in 214.00 W/m2
12:44 47.0 °F 37.0 °F 30.3 in East 5 mph 7 mph 69% 0.000 in 239.00 W/m2
12:49 47.0 °F 38.0 °F 30.3 in East 8 mph 8 mph 70% 0.000 in 234.00 W/m2
12:54 47.0 °F 37.0 °F 30.3 in East 4 mph 8 mph 69% 0.000 in 239.00 W/m2
12:59 47.0 °F 37.0 °F 30.3 in East 7 mph 8 mph 69% 0.000 in 237.00 W/m2
13:04 47.0 °F 38.0 °F 30.3 in ESE 8 mph 8 mph 70% 0.000 in 172.00 W/m2
13:09 47.0 °F 38.0 °F 30.3 in ESE 9 mph 9 mph 70% 0.000 in 174.00 W/m2
13:14 47.0 °F 38.0 °F 30.3 in East 5 mph 8 mph 70% 0.000 in 163.00 W/m2
13:19 47.0 °F 37.0 °F 30.3 in ENE 4 mph 5 mph 69% 0.000 in 111.00 W/m2
13:24 47.0 °F 37.0 °F 30.3 in ESE 3 mph 4 mph 69% 0.000 in 120.00 W/m2
13:29 47.0 °F 37.0 °F 30.3 in East 7 mph 7 mph 69% 0.000 in 135.00 W/m2
13:34 47.0 °F 38.0 °F 30.2 in NE 6 mph 8 mph 70% 0.000 in 174.00 W/m2
13:39 47.0 °F 38.0 °F 30.2 in NE 4 mph 8 mph 70% 0.000 in 190.00 W/m2
13:44 47.0 °F 38.0 °F 30.2 in NE 9 mph 9 mph 71% 0.000 in 253.00 W/m2
13:49 48.0 °F 39.0 °F 30.2 in NNE 9 mph 9 mph 71% 0.000 in 265.00 W/m2
13:54 48.0 °F 39.0 °F 30.2 in ENE 9 mph 9 mph 71% 0.000 in 239.00 W/m2
13:59 48.0 °F 39.0 °F 30.2 in NNE 9 mph 9 mph 71% 0.000 in 283.00 W/m2
14:04 48.0 °F 39.0 °F 30.2 in NE 10 mph 10 mph 70% 0.000 in 258.00 W/m2
14:09 48.0 °F 39.0 °F 30.2 in NNE 9 mph 11 mph 70% 0.000 in 251.00 W/m2
14:14 48.0 °F 39.0 °F 30.2 in NNE 8 mph 9 mph 70% 0.000 in 165.00 W/m2
14:19 48.0 °F 39.0 °F 30.2 in East 7 mph 10 mph 70% 0.000 in 121.00 W/m2
14:24 48.0 °F 39.0 °F 30.2 in ENE 6 mph 10 mph 70% 0.000 in 134.00 W/m2
14:29 48.0 °F 39.0 °F 30.2 in ENE 6 mph 6 mph 70% 0.000 in 142.00 W/m2
14:34 49.0 °F 40.0 °F 30.2 in NE 6 mph 7 mph 71% 0.000 in 158.00 W/m2
14:39 49.0 °F 40.0 °F 30.2 in ENE 8 mph 9 mph 71% 0.000 in 158.00 W/m2
14:44 49.0 °F 39.0 °F 30.2 in East 7 mph 7 mph 70% 0.000 in 156.00 W/m2
14:49 49.0 °F 39.0 °F 30.2 in ENE 10 mph 11 mph 70% 0.000 in 146.00 W/m2
14:54 49.0 °F 39.0 °F 30.2 in ENE 9 mph 10 mph 70% 0.000 in 137.00 W/m2
14:59 49.0 °F 40.0 °F 30.2 in ENE 5 mph 9 mph 70% 0.000 in 118.00 W/m2
15:04 49.0 °F 40.0 °F 30.2 in NE 6 mph 7 mph 71% 0.000 in 97.00 W/m2
15:09 49.0 °F 40.0 °F 30.2 in NE 9 mph 9 mph 71% 0.000 in 95.00 W/m2
15:14 49.0 °F 40.0 °F 30.2 in ESE 5 mph 6 mph 71% 0.000 in 86.00 W/m2
15:19 49.0 °F 40.0 °F 30.2 in ESE 4 mph 6 mph 71% 0.000 in 74.00 W/m2
15:24 50.0 °F 41.0 °F 30.2 in ESE 8 mph 9 mph 71% 0.000 in 56.00 W/m2
15:29 50.0 °F 41.0 °F 30.2 in ESE 4 mph 9 mph 71% 0.000 in 53.00 W/m2
15:34 50.0 °F 41.0 °F 30.2 in East 3 mph 4 mph 71% 0.000 in 49.00 W/m2
15:39 50.0 °F 41.0 °F 30.2 in ESE 4 mph 4 mph 71% 0.000 in 44.00 W/m2
15:44 50.0 °F 41.0 °F 30.2 in ESE 3 mph 3 mph 71% 0.000 in 40.00 W/m2
15:49 50.0 °F 41.0 °F 30.2 in ESE 6 mph 7 mph 71% 0.000 in 37.00 W/m2
15:54 50.0 °F 41.0 °F 30.2 in SE 8 mph 8 mph 71% 0.000 in 37.00 W/m2
15:59 50.0 °F 41.0 °F 30.2 in SE 4 mph 8 mph 71% 0.000 in 37.00 W/m2
16:04 50.0 °F 41.0 °F 30.2 in SE 4 mph 4 mph 71% 0.000 in 37.00 W/m2
16:09 50.0 °F 41.0 °F 30.2 in SE 5 mph 5 mph 72% 0.000 in 35.00 W/m2
16:14 50.0 °F 41.0 °F 30.2 in ESE 6 mph 6 mph 72% 0.000 in 35.00 W/m2
16:19 50.0 °F 41.0 °F 30.2 in East 6 mph 6 mph 72% 0.000 in 33.00 W/m2
16:24 50.0 °F 41.0 °F 30.2 in East 5 mph 7 mph 72% 0.000 in 33.00 W/m2
16:29 50.0 °F 41.0 °F 30.2 in East 6 mph 6 mph 72% 0.000 in 32.00 W/m2
16:34 50.0 °F 41.0 °F 30.2 in East 4 mph 4 mph 72% 0.000 in 30.00 W/m2
16:39 50.0 °F 41.0 °F 30.2 in NE 6 mph 6 mph 72% 0.000 in 26.00 W/m2
16:44 50.0 °F 41.0 °F 30.2 in East 6 mph 8 mph 72% 0.000 in 25.00 W/m2
16:49 50.0 °F 41.0 °F 30.2 in ENE 7 mph 8 mph 73% 0.000 in 33.00 W/m2
16:54 50.0 °F 41.0 °F 30.2 in NE 8 mph 8 mph 73% 0.000 in 32.00 W/m2
16:59 50.0 °F 41.0 °F 30.2 in ESE 7 mph 7 mph 73% 0.000 in 14.00 W/m2
17:04 50.0 °F 41.0 °F 30.2 in East 5 mph 8 mph 73% 0.000 in 14.00 W/m2
17:09 50.0 °F 41.0 °F 30.2 in East 8 mph 9 mph 73% 0.000 in 7.00 W/m2
17:14 50.0 °F 42.0 °F 30.2 in ENE 6 mph 9 mph 74% 0.000 in 11.00 W/m2
17:19 50.0 °F 42.0 °F 30.2 in ESE 5 mph 7 mph 74% 0.000 in 14.00 W/m2
17:24 50.0 °F 42.0 °F 30.2 in SE 7 mph 7 mph 74% 0.000 in 12.00 W/m2
17:29 50.0 °F 42.0 °F 30.2 in ESE 5 mph 6 mph 74% 0.000 in 0.00 W/m2
17:34 50.0 °F 42.0 °F 30.2 in ESE 7 mph 7 mph 74% 0.000 in 0.00 W/m2
17:39 50.0 °F 42.0 °F 30.2 in East 7 mph 9 mph 74% 0.000 in 0.00 W/m2
17:44 50.0 °F 42.0 °F 30.2 in ESE 7 mph 8 mph 74% 0.000 in 0.00 W/m2
17:49 49.0 °F 42.0 °F 30.2 in NE 7 mph 8 mph 75% 0.000 in 0.00 W/m2
17:54 49.0 °F 42.0 °F 30.2 in ENE 4 mph 4 mph 75% 0.000 in 0.00 W/m2
17:59 49.0 °F 42.0 °F 30.2 in East 6 mph 6 mph 75% 0.000 in 0.00 W/m2
18:04 50.0 °F 42.0 °F 30.2 in ENE 8 mph 8 mph 75% 0.000 in 0.00 W/m2
18:09 50.0 °F 42.0 °F 30.2 in East 7 mph 8 mph 75% 0.000 in 0.00 W/m2
18:14 49.0 °F 42.0 °F 30.2 in ENE 7 mph 8 mph 75% 0.000 in 0.00 W/m2
18:19 49.0 °F 42.0 °F 30.2 in ENE 4 mph 7 mph 75% 0.000 in 0.00 W/m2
18:24 49.0 °F 42.0 °F 30.2 in East 3 mph 4 mph 76% 0.000 in 0.00 W/m2
18:29 49.0 °F 42.0 °F 30.2 in NE 6 mph 6 mph 76% 0.000 in 0.00 W/m2
18:34 49.0 °F 42.0 °F 30.2 in ENE 6 mph 7 mph 76% 0.000 in 0.00 W/m2
18:39 49.0 °F 42.0 °F 30.2 in ENE 8 mph 10 mph 76% 0.000 in 0.00 W/m2
18:44 49.0 °F 42.0 °F 30.2 in East 9 mph 10 mph 76% 0.000 in 0.00 W/m2
18:49 49.0 °F 42.0 °F 30.2 in East 8 mph 9 mph 75% 0.000 in 0.00 W/m2
18:54 49.0 °F 42.0 °F 30.2 in ENE 5 mph 9 mph 75% 0.000 in 0.00 W/m2
18:59 49.0 °F 42.0 °F 30.2 in NE 6 mph 11 mph 75% 0.000 in 0.00 W/m2
19:04 49.0 °F 42.0 °F 30.2 in ENE 9 mph 9 mph 75% 0.000 in 0.00 W/m2
19:09 49.0 °F 42.0 °F 30.2 in East 8 mph 8 mph 75% 0.000 in 0.00 W/m2
19:14 49.0 °F 42.0 °F 30.2 in ENE 8 mph 8 mph 75% 0.000 in 0.00 W/m2
19:19 49.0 °F 41.0 °F 30.2 in NE 8 mph 9 mph 75% 0.000 in 0.00 W/m2
19:24 49.0 °F 41.0 °F 30.2 in ESE 7 mph 7 mph 75% 0.000 in 0.00 W/m2
19:29 49.0 °F 41.0 °F 30.2 in ESE 4 mph 8 mph 75% 0.000 in 0.00 W/m2
19:34 49.0 °F 42.0 °F 30.2 in ESE 6 mph 8 mph 75% 0.000 in 0.00 W/m2
19:39 49.0 °F 42.0 °F 30.2 in SE 7 mph 9 mph 75% 0.000 in 0.00 W/m2
19:44 49.0 °F 42.0 °F 30.2 in ESE 7 mph 8 mph 75% 0.000 in 0.00 W/m2
19:49 49.0 °F 42.0 °F 30.2 in East 5 mph 8 mph 75% 0.000 in 0.00 W/m2
19:54 49.0 °F 41.0 °F 30.2 in East 7 mph 7 mph 74% 0.000 in 0.00 W/m2
19:59 49.0 °F 41.0 °F 30.2 in East 7 mph 7 mph 74% 0.000 in 0.00 W/m2
20:04 49.0 °F 41.0 °F 30.2 in ESE 7 mph 7 mph 73% 0.000 in 0.00 W/m2
20:09 49.0 °F 41.0 °F 30.2 in East 9 mph 9 mph 73% 0.000 in 0.00 W/m2
20:14 49.0 °F 41.0 °F 30.2 in ESE 9 mph 9 mph 73% 0.000 in 0.00 W/m2
20:19 49.0 °F 41.0 °F 30.2 in East 7 mph 9 mph 72% 0.000 in 0.00 W/m2
20:24 49.0 °F 41.0 °F 30.2 in East 4 mph 6 mph 72% 0.000 in 0.00 W/m2
20:29 49.0 °F 41.0 °F 30.2 in East 6 mph 6 mph 72% 0.000 in 0.00 W/m2
20:34 49.0 °F 41.0 °F 30.2 in ESE 4 mph 4 mph 72% 0.000 in 0.00 W/m2
20:39 49.0 °F 41.0 °F 30.2 in ESE 7 mph 7 mph 72% 0.000 in 0.00 W/m2
20:44 50.0 °F 41.0 °F 30.2 in ESE 9 mph 9 mph 72% 0.000 in 0.00 W/m2
20:49 50.0 °F 41.0 °F 30.2 in SE 5 mph 7 mph 72% 0.000 in 0.00 W/m2
20:54 50.0 °F 41.0 °F 30.2 in East 2 mph 3 mph 71% 0.000 in 0.00 W/m2
20:59 50.0 °F 41.0 °F 30.2 in ESE 4 mph 4 mph 72% 0.000 in 0.00 W/m2
21:04 50.0 °F 41.0 °F 30.2 in East 6 mph 6 mph 71% 0.000 in 0.00 W/m2
21:09 50.0 °F 41.0 °F 30.2 in East 8 mph 9 mph 71% 0.000 in 0.00 W/m2
21:14 50.0 °F 41.0 °F 30.2 in ENE 5 mph 9 mph 71% 0.000 in 0.00 W/m2
21:19 50.0 °F 41.0 °F 30.2 in ENE 7 mph 7 mph 71% 0.000 in 0.00 W/m2
21:24 50.0 °F 41.0 °F 30.2 in East 8 mph 10 mph 71% 0.000 in 0.00 W/m2
21:29 50.0 °F 41.0 °F 30.2 in East 8 mph 8 mph 71% 0.000 in 0.00 W/m2
21:34 50.0 °F 41.0 °F 30.2 in East 7 mph 8 mph 71% 0.000 in 0.00 W/m2
21:39 50.0 °F 41.0 °F 30.2 in ENE 4 mph 7 mph 71% 0.000 in 0.00 W/m2
21:44 50.0 °F 41.0 °F 30.2 in East 6 mph 9 mph 71% 0.000 in 0.00 W/m2
21:49 50.0 °F 41.0 °F 30.2 in East 6 mph 8 mph 71% 0.000 in 0.00 W/m2
21:54 50.0 °F 41.0 °F 30.2 in ESE 4 mph 4 mph 71% 0.000 in 0.00 W/m2
21:59 50.0 °F 41.0 °F 30.2 in ESE 7 mph 7 mph 71% 0.000 in 0.00 W/m2
22:04 50.0 °F 41.0 °F 30.2 in ESE 9 mph 9 mph 71% 0.000 in 0.00 W/m2
22:09 50.0 °F 41.0 °F 30.2 in ESE 3 mph 9 mph 71% 0.000 in 0.00 W/m2
22:14 50.0 °F 41.0 °F 30.2 in East 7 mph 7 mph 71% 0.000 in 0.00 W/m2
22:19 50.0 °F 42.0 °F 30.2 in ESE 6 mph 6 mph 72% 0.000 in 0.00 W/m2
22:24 50.0 °F 42.0 °F 30.2 in East 6 mph 6 mph 72% 0.000 in 0.00 W/m2
22:29 50.0 °F 42.0 °F 30.2 in ESE 4 mph 4 mph 72% 0.000 in 0.00 W/m2
22:34 50.0 °F 42.0 °F 30.2 in SE 8 mph 8 mph 72% 0.000 in 0.00 W/m2
22:39 50.0 °F 42.0 °F 30.2 in ESE 7 mph 7 mph 72% 0.000 in 0.00 W/m2
22:44 50.0 °F 42.0 °F 30.2 in SE 5 mph 7 mph 72% 0.000 in 0.00 W/m2
22:49 50.0 °F 42.0 °F 30.2 in East 7 mph 7 mph 72% 0.000 in 0.00 W/m2
22:54 50.0 °F 42.0 °F 30.2 in East 4 mph 4 mph 72% 0.000 in 0.00 W/m2
22:59 50.0 °F 42.0 °F 30.2 in East 6 mph 6 mph 72% 0.000 in 0.00 W/m2
23:04 50.0 °F 42.0 °F 30.2 in ESE 4 mph 7 mph 72% 0.000 in 0.00 W/m2
23:09 51.0 °F 42.0 °F 30.2 in ESE 8 mph 8 mph 72% 0.000 in 0.00 W/m2
23:14 51.0 °F 42.0 °F 30.2 in ESE 8 mph 8 mph 73% 0.000 in 0.00 W/m2
23:19 51.0 °F 42.0 °F 30.2 in East 6 mph 7 mph 73% 0.000 in 0.00 W/m2
23:24 51.0 °F 42.0 °F 30.2 in ESE 6 mph 10 mph 73% 0.000 in 0.00 W/m2
23:29 51.0 °F 42.0 °F 30.2 in ESE 8 mph 8 mph 73% 0.000 in 0.00 W/m2
23:34 51.0 °F 42.0 °F 30.2 in ESE 4 mph 4 mph 73% 0.000 in 0.00 W/m2
23:39 51.0 °F 42.0 °F 30.2 in ESE 7 mph 7 mph 73% 0.000 in 0.00 W/m2
23:44 51.0 °F 42.0 °F 30.2 in ESE 7 mph 7 mph 73% 0.000 in 0.00 W/m2
23:49 51.0 °F 42.0 °F 30.2 in ESE 5 mph 7 mph 73% 0.000 in 0.00 W/m2
23:54 51.0 °F 43.0 °F 30.2 in ESE 8 mph 8 mph 74% 0.000 in 0.00 W/m2
23:59 51.0 °F 43.0 °F 30.2 in ESE 5 mph 5 mph 74% 0.000 in 0.00 W/m2
Villages of Bridgestone, Spring, TX USA
Compliments of Weather Underground - 4 mb